| time (UTC) | temp C | wind direction | speed KPH | gust KPH | rain 1hr cm | rain 24hr cm | rain mn cm | humidity % | barometer mb |
| 20260509223047 | 15 | 344 | 20.9 | 32.2 | 0.00 | 0.00 | 0.00 | 71 | 999.0 |
| 20260509221543 | 14 | 12 | 20.9 | 46.7 | 0.00 | 0.00 | 0.00 | 73 | 998.7 |
| 20260509220038 | 14 | 17 | 17.7 | 40.2 | 0.00 | 0.00 | 0.00 | 75 | 999.4 |
| 20260509214549 | 15 | 307 | 19.3 | 35.4 | 0.00 | 0.00 | 0.00 | 74 | 999.4 |
| 20260509213036 | 15 | 350 | 20.9 | 35.4 | 0.00 | 0.00 | 0.00 | 73 | 999.7 |
| 20260509211531 | 15 | 344 | 16.1 | 30.6 | 0.00 | 0.00 | 0.00 | 73 | 1000.1 |
| 20260509210034 | 15 | 192 | 17.7 | 33.8 | 0.00 | 0.00 | 0.00 | 73 | 1000.6 |
| 20260509204530 | 15 | 342 | 19.3 | 33.8 | 0.00 | 0.00 | 0.00 | 75 | 1000.5 |
| 20260509203027 | 15 | 51 | 19.3 | 35.4 | 0.00 | 0.00 | 0.00 | 77 | 1000.8 |
| 20260509201526 | 14 | 310 | 22.5 | 35.4 | 0.00 | 0.00 | 0.00 | 79 | 1001.1 |
| 20260509200023 | 14 | 5 | 17.7 | 32.2 | 0.00 | 0.00 | 0.00 | 79 | 1001.4 |
| 20260509194520 | 14 | 341 | 16.1 | 32.2 | 0.00 | 0.00 | 0.00 | 78 | 1001.7 |
| 20260509193026 | 15 | 355 | 17.7 | 32.2 | 0.00 | 0.00 | 0.00 | 76 | 1002.2 |
| 20260509191615 | 15 | 360 | 19.3 | 33.8 | 0.00 | 0.00 | 0.00 | 75 | 1002.5 |
| 20260509190015 | 15 | 16 | 17.7 | 33.8 | 0.00 | 0.00 | 0.00 | 73 | 1002.6 |
| 20260509184530 | 15 | 340 | 17.7 | 29.0 | 0.00 | 0.00 | 0.00 | 72 | 1002.9 |
| 20260509183008 | 15 | 14 | 14.5 | 27.4 | 0.00 | 0.00 | 0.00 | 71 | 1003.1 |
| 20260509181508 | 15 | 308 | 9.7 | 24.1 | 0.00 | 0.00 | 0.00 | 71 | 1003.0 |
| 20260509180006 | 15 | 12 | 14.5 | 30.6 | 0.00 | 0.00 | 0.00 | 73 | 1003.3 |
| 20260509174506 | 15 | 355 | 17.7 | 29.0 | 0.00 | 0.00 | 0.00 | 77 | 1003.3 |
| 20260509173003 | 15 | 348 | 14.5 | 30.6 | 0.00 | 0.00 | 0.00 | 80 | 1003.5 |
| 20260509171601 | 15 | 14 | 14.5 | 24.1 | 0.00 | 0.00 | 0.00 | 80 | 1003.9 |
| 20260509170107 | 15 | 328 | 9.7 | 25.7 | 0.00 | 0.00 | 0.00 | 78 | 1004.0 |
| 20260509164600 | 15 | 333 | 8.0 | 17.7 | 0.00 | 0.00 | 0.00 | 77 | 1004.0 |
| 20260509163100 | 15 | 333 | 9.7 | 20.9 | 0.00 | 0.00 | 0.00 | 74 | 1004.0 |
| 20260509161557 | 15 | 22 | 8.0 | 20.9 | 0.00 | 0.00 | 0.00 | 70 | 1004.1 |
| 20260509160057 | 16 | 355 | 11.3 | 20.9 | 0.00 | 0.00 | 0.00 | 67 | 1004.2 |
| 20260509154556 | 16 | 350 | 8.0 | 16.1 | 0.00 | 0.00 | 0.00 | 65 | 1004.0 |
| 20260509153105 | 16 | 342 | 8.0 | 22.5 | 0.00 | 0.00 | 0.00 | 62 | 1004.0 |
| 20260509151555 | 17 | 303 | 9.7 | 25.7 | 0.00 | 0.00 | 0.00 | 62 | 1004.2 |
| 20260509150054 | 17 | 326 | 9.7 | 19.3 | 0.00 | 0.00 | 0.00 | 62 | 1004.2 |
| 20260509144553 | 17 | 321 | 9.7 | 20.9 | 0.00 | 0.00 | 0.00 | 61 | 1004.1 |
| 20260509143052 | 17 | 307 | 11.3 | 24.1 | 0.00 | 0.00 | 0.00 | 59 | 1004.1 |
| 20260509141551 | 17 | 313 | 12.9 | 29.0 | 0.00 | 0.00 | 0.00 | 59 | 1004.2 |
| 20260509140050 | 18 | 296 | 16.1 | 33.8 | 0.00 | 0.00 | 0.00 | 56 | 1004.5 |
| 20260509134549 | 18 | 277 | 12.9 | 24.1 | 0.00 | 0.00 | 0.00 | 55 | 1004.4 |
| 20260509133048 | 19 | 288 | 12.9 | 27.4 | 0.00 | 0.00 | 0.00 | 55 | 1004.4 |
| 20260509131546 | 19 | 345 | 16.1 | 27.4 | 0.00 | 0.00 | 0.00 | 55 | 1004.4 |
| 20260509130050 | 20 | 281 | 12.9 | 25.7 | 0.00 | 0.00 | 0.00 | 55 | 1004.6 |
| 20260509124549 | 19 | 292 | 16.1 | 27.4 | 0.00 | 0.00 | 0.00 | 57 | 1004.9 |
| 20260509123039 | 19 | 284 | 12.9 | 27.4 | 0.00 | 0.00 | 0.00 | 56 | 1005.5 |
| 20260509121536 | 18 | 5 | 11.3 | 27.4 | 0.00 | 0.00 | 0.00 | 55 | 1005.7 |
| 20260509120034 | 20 | 33 | 14.5 | 25.7 | 0.00 | 0.00 | 0.00 | 53 | 1005.9 |
| 20260509114531 | 20 | 340 | 14.5 | 30.6 | 0.00 | 0.00 | 0.00 | 54 | 1006.2 |
| 20260509113028 | 20 | 306 | 12.9 | 25.7 | 0.00 | 0.00 | 0.00 | 55 | 1006.6 |
| 20260509111526 | 19 | 331 | 14.5 | 25.7 | 0.00 | 0.00 | 0.00 | 57 | 1006.8 |
| 20260509110023 | 18 | 308 | 17.7 | 27.4 | 0.00 | 0.00 | 0.00 | 61 | 1007.0 |
| 20260509104520 | 18 | 317 | 14.5 | 25.7 | 0.00 | 0.00 | 0.00 | 59 | 1007.1 |
| 20260509103017 | 18 | 330 | 12.9 | 25.7 | 0.00 | 0.00 | 0.00 | 59 | 1007.5 |
| 20260509101523 | 18 | 309 | 16.1 | 29.0 | 0.00 | 0.00 | 0.00 | 58 | 1007.6 |
| 20260509100014 | 18 | 345 | 17.7 | 25.7 | 0.00 | 0.00 | 0.00 | 59 | 1007.8 |
| 20260509094511 | 18 | 338 | 12.9 | 32.2 | 0.00 | 0.00 | 0.00 | 62 | 1007.9 |
| 20260509093007 | 17 | 17 | 12.9 | 29.0 | 0.00 | 0.00 | 0.00 | 64 | 1008.3 |
| 20260509091507 | 17 | 348 | 16.1 | 25.7 | 0.00 | 0.00 | 0.00 | 65 | 1008.6 |
| 20260509090002 | 17 | 9 | 11.3 | 25.7 | 0.00 | 0.00 | 0.00 | 67 | 1008.7 |
| 20260509084602 | 17 | 346 | 12.9 | 20.9 | 0.00 | 0.00 | 0.00 | 65 | 1008.9 |
| 20260509083101 | 16 | 327 | 9.7 | 20.9 | 0.00 | 0.00 | 0.00 | 68 | 1009.3 |
| 20260509081652 | 16 | 5 | 6.4 | 17.7 | 0.00 | 0.00 | 0.00 | 70 | 1009.4 |
| 20260509080053 | 16 | 322 | 4.8 | 17.7 | 0.00 | 0.00 | 0.00 | 72 | 1009.4 |
| 20260509074551 | 15 | 325 | 11.3 | 20.9 | 0.00 | 0.00 | 0.00 | 72 | 1009.7 |
| 20260509073043 | 15 | 324 | 6.4 | 16.1 | 0.00 | 0.00 | 0.00 | 72 | 1009.6 |
| 20260509071543 | 15 | 335 | 6.4 | 14.5 | 0.00 | 0.00 | 0.00 | 71 | 1009.7 |
| 20260509070040 | 15 | 342 | 8.0 | 17.7 | 0.00 | 0.00 | 0.00 | 71 | 1009.8 |
| 20260509064536 | 15 | 17 | 6.4 | 12.9 | 0.00 | 0.00 | 0.00 | 72 | 1009.5 |
| 20260509063034 | 13 | 23 | 3.2 | 6.4 | 0.00 | 0.00 | 0.00 | 75 | 1009.6 |
| 20260509061534 | 12 | 46 | 4.8 | 8.0 | 0.00 | 0.00 | 0.00 | 77 | 1009.5 |
| 20260509060031 | 11 | 22 | 1.6 | 6.4 | 0.00 | 0.00 | 0.00 | 79 | 1009.8 |
| 20260509054532 | 11 | 28 | 1.6 | 4.8 | 0.00 | 0.00 | 0.00 | 78 | 1009.9 |
| 20260509053038 | 12 | 46 | 1.6 | 3.2 | 0.00 | 0.00 | 0.00 | 76 | 1009.9 |
| 20260509051525 | 13 | 46 | 0.0 | 4.8 | 0.00 | 0.00 | 0.00 | 74 | 1009.9 |
| 20260509050024 | 13 | 46 | 1.6 | 4.8 | 0.00 | 0.00 | 0.00 | 73 | 1009.9 |
| 20260509044524 | 13 | 60 | 1.6 | 8.0 | 0.00 | 0.00 | 0.00 | 74 | 1009.9 |
| 20260509043021 | 13 | 55 | 3.2 | 6.4 | 0.00 | 0.00 | 0.00 | 74 | 1010.0 |
| 20260509041521 | 13 | 53 | 3.2 | 6.4 | 0.00 | 0.00 | 0.00 | 75 | 1010.0 |
| 20260509040027 | 13 | 70 | 1.6 | 4.8 | 0.00 | 0.00 | 0.00 | 75 | 1010.1 |
| 20260509034518 | 13 | 71 | 1.6 | 4.8 | 0.00 | 0.00 | 0.00 | 76 | 1010.1 |
| 20260509033016 | 12 | 73 | 1.6 | 4.8 | 0.00 | 0.00 | 0.00 | 77 | 1010.3 |
| 20260509031515 | 12 | 73 | 1.6 | 4.8 | 0.00 | 0.00 | 0.00 | 78 | 1010.4 |
| 20260509030026 | 12 | 73 | 1.6 | 4.8 | 0.00 | 0.00 | 0.00 | 81 | 1010.6 |
| 20260509024514 | 12 | 73 | 0.0 | 3.2 | 0.00 | 0.00 | 0.00 | 81 | 1010.8 |
| 20260509023009 | 12 | 73 | 0.0 | 3.2 | 0.00 | 0.00 | 0.00 | 80 | 1011.0 |
| 20260509021508 | 12 | 73 | 0.0 | 3.2 | 0.00 | 0.00 | 0.00 | 81 | 1011.0 |
| 20260509020006 | 12 | 73 | 1.6 | 4.8 | 0.00 | 0.00 | 0.00 | 81 | 1011.2 |
| 20260509014505 | 12 | 73 | 1.6 | 3.2 | 0.00 | 0.00 | 0.00 | 81 | 1011.4 |
| 20260509013002 | 12 | 73 | 0.0 | 0.0 | 0.00 | 0.00 | 0.00 | 81 | 1011.7 |
| 20260509011601 | 13 | 73 | 0.0 | 0.0 | 0.00 | 0.00 | 0.00 | 81 | 1012.0 |
| 20260509010057 | 13 | 73 | 0.0 | 0.0 | 0.00 | 0.00 | 0.00 | 81 | 1012.1 |
| 20260509004600 | 13 | 73 | 0.0 | 1.6 | 0.00 | 0.00 | 0.00 | 81 | 1012.2 |
| 20260509003058 | 13 | 73 | 0.0 | 3.2 | 0.00 | 0.00 | 0.00 | 80 | 1012.3 |
| 20260509001553 | 13 | 73 | 1.6 | 4.8 | 0.00 | 0.00 | 0.00 | 79 | 1012.4 |
| 20260509000051 | 13 | 71 | 1.6 | 3.2 | 0.00 | 0.00 | 0.00 | 79 | 1012.5 |
| 20260508234548 | 13 | 71 | 0.0 | 4.8 | 0.00 | 0.00 | 0.00 | 78 | 1012.6 |
| 20260508233048 | 14 | 71 | 1.6 | 4.8 | 0.00 | 0.00 | 0.00 | 77 | 1012.6 |
| 20260508231547 | 14 | 68 | 1.6 | 4.8 | 0.00 | 0.00 | 0.00 | 76 | 1012.7 |
| 20260508230045 | 14 | 63 | 1.6 | 6.4 | 0.00 | 0.00 | 0.00 | 76 | 1012.8 |
| 20260508224558 | 13 | 55 | 1.6 | 4.8 | 0.00 | 0.00 | 0.00 | 77 | 1013.0 |